Temperature
16 16 16 15 15 15 15 15 15 15 15 15 15 15 15 15 15 15 15 15 15 15 15 15 15 15 15 15 15 15 15 15 15 15 15 15 15 15 15 16 16 16 16
16 16 16 15 15 15 15 15 15 15 15 15 15 15 15 15 15 15 15 15 15 15 15 15 15 15 15 15 15 15 15 15 15 15 15 15 15 15 15 15 15 15 15
15 15 16 15 15 15 15 15 15 15 15 15 15 15 15 15 14 14 15 14 14 15 15 15 15 15 15 15 15 15 15 15 15 15 15 15 15 15 15 15 15 15 15
15 15 15 15 15 15 15 15 15 15 15 15 15 15 15 15 14 14 14 14 14 14 14 15 15 15 15 15 14 14 14 14 14 14 14 14 15 15 15 15 15 15 15
15 15 15 15 15 15 15 15 15 15 15 15 15 15 14 14 14 14 14 14 14 14 14 14 14 14 14 15 14 14 14 14 14 14 14 14 14 15 15 15 15 15 15
15 15 15 15 15 15 15 15 15 15 15 14 14 14 14 14 14 14 14 14 14 14 14 14 14 14 14 14 14 14 14 14 14 14 14 14 14 14 14 14 14 14 14
15 15 15 15 15 15 15 15 15 15 14 14 14 14 14 14 14 14 14 14 14 14 14 14 14 13 13 14 14 14 14 14 14 14 14 14 14 14 14 14 14 14 14
15 15 15 15 15 15 15 15 15 14 14 14 14 15 15 14 14 14 14 14 13 13 13 13 13 13 13 13 13 14 14 14 13 14 14 14 14 14 14 14 14 14 14
15 15 15 15 15 15 15 14 14 14 14 14 14 15 15 15 14 13 13 13 13 13 13 13 13 13 13 13 13 13 13 13 13 13 13 13 13 13 13 13 13 13 13
15 15 15 15 15 14 14 14 14 14 14 14 14 14 14 14 14 14 13 13 13 13 13 13 13 13 13 13 13 13 13 13 13 13 13 13 13 13 13 13 13 13 13
15 15 15 15 15 14 14 14 14 14 14 14 14 14 14 14 14 14 14 13 13 13 13 13 13 13 13 13 13 13 13 13 13 13 13 13 13 13 13 13 13 13 13
15 15 15 15 15 14 14 14 14 14 14 14 14 14 14 14 14 14 14 14 13 12 13 13 13 13 13 13 13 13 13 13 13 13 13 13 13 13 12 12 13 13 13
15 15 14 14 14 14 14 14 14 14 14 14 14 14 14 14 14 14 14 14 13 13 12 12 13 13 13 12 12 13 13 13 13 13 13 13 13 13 13 13 12 12 12
15 14 14 14 14 14 14 14 14 14 14 14 14 14 14 14 14 14 14 14 14 14 13 13 12 12 12 12 12 12 12 13 13 13 13 12 12 12 12 12 12 12 12
15 14 14 14 14 14 14 14 14 14 14 14 14 14 14 14 14 14 14 14 14 15 14 13 12 12 12 12 12 12 12 12 12 12 12 12 12 12 12 12 12 12 12
15 15 14 14 14 14 14 14 14 14 14 14 14 14 14 14 14 14 14 14 13 14 14 13 12 12 12 12 12 12 12 12 12 12 12 12 12 12 12 12 12 12 12
15 15 14 14 14 14 14 14 14 14 14 14 14 14 14 14 14 14 14 14 13 13 13 13 12 12 12 12 12 12 11 11 12 12 12 12 12 12 12 12 12 12 11
15 15 15 15 15 14 14 14 14 14 14 14 14 14 14 14 14 14 14 13 13 13 13 13 12 12 12 12 12 12 11 11 11 12 12 12 12 12 11 11 11 11 11
15 15 15 15 15 15 14 14 14 14 14 14 14 14 14 14 14 14 14 13 13 13 13 13 12 12 12 12 12 12 11 11 11 11 11 11 11 11 11 11 11 11 11
15 15 15 15 15 15 14 14 14 14 14 14 14 14 14 14 14 13 13 13 13 13 13 12 12 12 12 12 11 11 11 11 11 11 11 11 11 11 11 11 11 11 11
15 15 15 15 15 14 14 14 14 14 14 14 14 14 14 14 14 13 13 13 13 13 12 12 12 12 11 11 11 11 11 11 11 11 10 10 10 10 10 10 10 10 10
15 15 15 15 14 15 15 14 14 14 14 14 13 13 14 14 14 14 13 13 13 13 12 12 12 12 11 11 11 11 11 11 10 10 10 10 10 10 10 10 10 10 10
15 15 15 15 14 14 14 14 14 14 14 14 13 13 13 13 13 13 13 13 13 13 13 12 12 11 11 11 11 11 11 11 10 10 10 10 10 10 10 10 10 10 10
15 15 15 15 15 14 14 14 14 14 14 13 13 13 13 13 13 13 13 13 13 13 12 12 12 12 12 12 11 11 11 11 10 10 10 10 10 9 9 9 10 9 9
15 15 15 15 15 14 14 14 14 14 14 13 13 13 13 13 13 13 12 12 12 12 12 12 12 12 12 11 11 11 11 10 10 10 10 10 9 9 9 9 9 9 9
14 14 14 14 14 14 14 14 14 13 13 13 13 13 13 13 13 13 12 12 12 12 12 12 12 11 11 11 11 11 10 10 10 9 10 10 9 9 8 9 9 8 8
Wind_Speed
4 4 4 4 5 4 4 4 5 6 6 7 7 8 8 8 8 7 8 12 13 12 12 11 11 11 10 10 10 9 9 9 9 9 10 11 10 9 9 9 9 9 9
4 3 4 4 5 4 4 5 5 5 5 6 7 8 7 7 8 7 7 8 11 13 13 13 12 11 11 10 10 9 9 9 9 9 10 10 10 10 10 10 9 10 10
4 4 3 4 4 4 5 5 6 6 5 5 6 7 7 7 7 7 7 7 8 12 14 14 13 13 12 11 10 10 10 9 10 9 10 10 10 10 10 10 10 10 10
4 4 3 4 4 4 4 4 4 5 5 5 5 5 5 6 7 7 7 8 7 8 11 14 14 13 13 12 11 10 10 10 10 10 10 10 10 10 9 9 9 10 10
4 4 4 3 4 4 4 4 4 4 5 5 5 5 5 5 5 6 7 8 8 7 7 9 11 13 13 13 12 11 10 10 10 10 10 10 10 10 9 9 9 10 10
4 4 3 3 3 3 3 3 4 4 4 4 4 5 5 4 5 5 6 6 7 8 8 8 7 9 13 13 13 12 12 11 10 10 10 10 10 9 9 9 9 10 10
3 4 3 3 2 3 3 4 4 4 3 3 2 3 4 5 5 4 5 5 6 6 7 7 7 7 7 10 12 12 12 12 11 11 11 10 10 9 9 9 9 9 10
3 3 3 3 2 2 3 4 3 2 2 1 0 1 1 3 3 4 4 4 5 5 6 7 7 7 7 7 10 12 12 12 11 11 12 11 10 10 9 9 9 9 9
2 2 2 2 2 2 2 3 3 2 2 1 1 1 1 1 2 3 4 4 4 4 4 6 7 7 7 7 7 10 12 12 11 11 11 11 11 11 9 8 9 9 9
2 2 2 1 1 1 2 2 2 2 2 1 1 1 2 1 0 1 2 3 4 4 4 4 5 7 7 7 8 11 11 11 11 11 10 10 11 11 10 9 9 9 9
2 2 2 2 1 1 2 2 2 2 2 1 0 1 1 0 1 0 1 2 2 3 3 4 4 5 7 7 7 11 11 11 11 10 10 10 11 11 11 10 10 10 10
2 2 2 2 1 1 2 2 2 3 2 1 1 1 1 1 0 0 1 1 2 2 3 3 3 4 5 6 8 11 11 11 11 11 11 11 11 11 12 12 12 11 11
2 2 2 2 1 1 1 2 2 2 2 2 2 1 1 1 1 1 1 1 1 1 1 2 3 3 4 5 6 7 9 10 10 10 11 11 12 12 12 12 12 12 12
2 2 1 1 1 1 1 1 1 1 1 2 2 1 1 1 1 1 1 1 1 1 1 2 3 3 3 3 5 4 7 9 9 10 10 11 11 11 11 11 11 11 12
2 2 2 2 1 1 1 1 1 1 1 1 1 1 1 0 1 1 1 1 2 1 1 2 1 2 2 3 4 4 6 9 9 9 9 9 9 9 10 10 10 10 11
2 2 2 2 2 2 2 1 1 0 1 1 1 1 1 1 1 1 1 0 1 1 1 2 2 2 2 2 3 3 5 6 7 7 8 8 8 8 8 8 9 9 9
3 3 2 2 2 3 2 2 1 1 1 1 2 2 2 1 1 1 1 1 0 0 2 2 2 2 2 2 2 2 2 3 5 6 6 7 7 7 7 7 7 8 8
2 2 3 3 3 2 2 2 2 1 1 0 1 2 2 2 2 1 1 1 1 1 1 2 2 2 2 2 1 1 1 2 3 6 5 6 6 6 6 6 6 6 6
3 3 3 3 3 3 3 2 2 2 1 1 1 1 1 2 2 2 2 2 2 2 1 2 2 2 1 1 1 0 1 1 2 3 3 4 5 5 5 5 5 5 5
4 4 3 3 3 3 3 3 3 2 2 1 1 1 1 2 2 2 2 2 2 2 2 2 2 2 1 1 1 0 0 0 1 1 2 2 3 3 5 6 5 5 5
5 4 4 4 3 3 2 3 3 3 2 2 2 2 2 2 3 1 1 2 2 2 2 2 1 1 1 1 1 1 1 1 1 1 1 1 1 2 2 3 4 4 4
5 5 5 4 4 3 2 1 3 4 3 3 3 3 3 4 4 3 2 2 1 1 2 2 1 1 1 1 1 1 2 2 1 1 2 1 1 1 2 4 5 4 4
6 5 5 5 5 4 5 4 3 3 3 3 3 3 3 3 5 5 6 5 2 1 2 2 1 1 2 1 2 2 1 2 2 1 2 2 1 1 1 3 5 4 3
6 6 6 5 5 5 7 6 5 5 3 3 3 3 4 4 4 5 5 5 4 3 3 3 2 2 1 1 2 2 2 2 2 1 1 2 2 2 1 1 4 3 2
6 6 6 6 6 6 8 8 7 5 4 4 4 4 4 4 4 4 5 5 4 4 3 2 1 1 3 3 1 2 2 2 3 1 1 2 3 3 3 1 1 3 1
6 6 6 6 6 7 8 9 9 5 5 5 4 3 2 2 4 5 6 5 5 4 4 4 4 4 3 2 3 3 3 3 3 2 0 2 3 3 3 1 1 1 2
Wind_Direction
82 86 89 85 80 80 88 87 88 85 82 77 71 67 62 59 55 56 63 55 49 48 48 53 57 58 57 57 53 49 48 46 42 40 36 34 38 41 37 35 33 30 28
84 85 87 85 82 82 84 93 94 90 84 78 70 66 60 58 57 55 59 68 61 50 49 51 54 54 53 53 51 47 44 43 43 41 38 38 37 37 37 36 35 31 30
83 85 81 86 87 94 97 95 96 91 87 86 78 71 65 55 55 55 52 54 65 63 53 49 50 50 49 48 49 50 47 46 45 43 42 40 39 38 36 36 37 35 32
92 90 91 88 92 96 98 97 94 94 88 83 78 71 69 63 55 51 52 53 53 57 61 53 48 48 47 46 45 47 49 48 46 44 42 41 41 38 37 36 38 36 33
98 103 97 101 105 99 97 103 101 98 95 87 82 76 68 63 59 51 50 52 56 56 58 62 55 49 44 41 41 43 46 47 45 45 42 40 40 38 37 37 40 39 37
98 101 112 118 111 104 104 107 105 98 98 97 88 81 74 70 62 52 46 51 50 52 51 47 48 56 49 41 39 40 42 45 46 45 42 39 37 37 36 39 41 41 39
115 107 116 109 112 117 126 130 123 118 113 116 113 102 92 77 64 55 47 50 54 49 48 46 41 39 48 49 39 38 39 40 43 43 42 40 37 37 36 41 43 43 41
130 128 136 132 134 135 145 142 143 135 128 156 127 144 129 113 75 61 58 54 52 52 46 46 45 43 38 39 45 39 35 35 40 41 40 39 39 37 37 42 45 46 44
139 154 144 144 151 159 156 166 169 167 159 170 335 322 325 70 88 88 64 62 51 46 44 41 44 41 39 36 35 42 35 33 38 40 38 37 39 37 38 45 48 48 46
151 164 163 169 168 175 174 186 189 199 198 177 121 12 13 39 263 118 95 72 58 49 41 41 40 37 35 38 43 39 36 34 38 39 36 35 38 39 41 47 50 48 48
154 166 173 179 189 191 206 213 205 222 219 242 258 109 82 103 273 272 118 109 86 58 46 40 43 37 34 36 38 43 39 36 36 36 36 35 37 40 42 48 50 51 51
151 156 182 193 200 205 214 217 215 220 241 262 279 252 250 263 216 220 159 136 101 78 64 51 42 44 40 38 41 43 40 37 36 36 36 38 39 41 43 47 50 51 50
158 156 183 193 209 212 216 217 215 222 221 235 254 273 274 288 289 245 188 144 124 120 88 72 60 56 50 43 41 41 45 40 39 40 41 42 42 42 44 46 47 48 48
158 152 183 181 198 205 203 202 223 218 232 231 247 256 260 270 250 236 230 193 182 157 138 98 90 75 62 49 43 38 55 50 43 44 45 44 43 44 45 46 46 46 46
164 168 177 168 162 183 191 175 179 183 209 236 236 215 223 200 228 232 219 250 283 251 123 107 98 78 76 61 39 53 57 59 49 45 44 43 45 48 49 47 46 46 45
177 185 189 175 163 169 168 167 176 124 190 154 199 210 192 161 139 181 213 231 303 312 82 98 100 91 73 86 64 57 66 72 56 49 45 45 48 51 51 50 48 46 45
186 184 194 184 178 179 171 160 187 183 192 170 167 164 166 163 167 159 169 167 151 117 131 115 109 114 118 91 85 68 61 61 69 63 50 48 50 51 51 50 49 47 44
195 192 185 187 189 189 185 174 179 188 192 176 149 156 159 152 165 162 170 168 141 142 147 133 136 129 113 97 81 71 75 67 66 74 63 52 48 49 51 50 49 46 42
203 194 192 192 190 193 191 190 187 187 185 186 178 174 166 162 166 156 171 153 138 136 147 161 137 122 133 111 124 127 101 59 68 90 93 73 56 52 52 48 46 45 43
207 205 199 194 196 199 201 196 193 189 190 180 169 178 184 178 184 174 168 164 161 155 154 162 158 149 152 137 219 241 176 99 38 49 66 70 82 80 61 48 44 45 45
209 210 209 208 202 205 213 211 195 198 197 189 186 179 162 105 55 89 160 169 175 182 173 174 177 176 168 168 233 268 288 282 140 12 335 15 51 45 65 62 47 41 42
213 211 215 213 208 207 160 248 250 208 209 209 206 197 175 161 149 137 89 52 11 223 191 183 199 212 223 218 247 273 286 285 277 48 310 331 2 12 28 36 55 64 48
210 210 213 212 211 194 164 180 228 237 228 225 221 205 189 181 181 181 172 176 176 337 317 268 238 257 259 255 246 254 277 289 299 4 309 298 326 325 18 52 69 63 55
208 211 212 210 210 198 173 180 193 207 214 219 224 221 208 199 197 195 182 179 181 184 203 227 247 267 294 284 253 273 282 261 257 225 302 295 307 303 310 74 99 74 43
213 214 212 210 212 204 181 185 197 199 204 211 216 223 222 211 155 193 200 196 190 180 151 162 9 29 39 28 325 246 252 258 271 233 212 279 293 297 282 254 135 142 132
216 217 216 217 217 215 181 184 204 207 208 207 208 210 207 231 161 187 208 210 211 204 191 180 188 207 219 202 204 239 258 266 281 277 288 269 286 294 281 258 287 251 245
Height
1552 1552 1552 1552 1552 1552 1552 1552 1553 1553 1553 1553 1553 1553 1553 1552 1552 1551 1550 1549 1549 1548 1547 1547 1545 1544 1543 1542 1542 1541 1540 1539 1537 1536 1534 1531 1528 1527 1528 1528 1527 1527 1526
1554 1554 1554 1553 1553 1553 1553 1553 1553 1553 1554 1554 1554 1553 1553 1553 1553 1552 1552 1551 1550 1549 1548 1548 1546 1545 1544 1543 1543 1542 1541 1539 1538 1537 1535 1533 1531 1530 1529 1529 1528 1527 1526
1555 1555 1555 1555 1554 1554 1554 1554 1554 1555 1554 1555 1555 1555 1554 1554 1554 1553 1553 1552 1551 1550 1549 1549 1548 1547 1546 1545 1544 1542 1541 1540 1539 1537 1536 1534 1533 1531 1531 1530 1528 1527 1526
1556 1556 1556 1556 1555 1555 1555 1555 1556 1556 1556 1556 1556 1556 1555 1555 1555 1555 1554 1553 1552 1552 1551 1550 1549 1548 1547 1546 1545 1543 1542 1541 1540 1538 1537 1535 1533 1532 1531 1530 1529 1528 1526
1557 1557 1557 1557 1557 1557 1557 1557 1557 1557 1557 1557 1557 1556 1556 1556 1556 1555 1555 1554 1553 1553 1552 1551 1550 1549 1548 1547 1545 1544 1543 1542 1540 1539 1537 1535 1534 1533 1531 1530 1529 1528 1526
1558 1558 1557 1557 1558 1558 1557 1557 1557 1557 1557 1558 1558 1558 1557 1557 1557 1556 1556 1555 1555 1554 1553 1552 1551 1550 1549 1548 1546 1545 1544 1542 1541 1539 1537 1536 1534 1533 1531 1530 1529 1528 1527
1559 1558 1559 1558 1558 1558 1558 1558 1558 1558 1559 1559 1559 1559 1559 1558 1558 1557 1557 1556 1556 1555 1554 1553 1552 1551 1550 1549 1547 1546 1545 1543 1541 1540 1538 1536 1534 1533 1531 1529 1528 1527 1527
1559 1559 1559 1559 1559 1559 1559 1559 1559 1559 1559 1559 1560 1560 1560 1561 1559 1559 1558 1557 1557 1556 1555 1555 1554 1552 1551 1550 1549 1547 1546 1544 1542 1541 1539 1537 1535 1533 1530 1529 1528 1527 1527
1559 1559 1560 1560 1559 1559 1559 1559 1559 1560 1560 1560 1560 1561 1561 1560 1561 1560 1559 1558 1558 1557 1556 1556 1555 1554 1552 1551 1549 1548 1546 1545 1543 1542 1540 1538 1535 1532 1530 1528 1527 1527 1527
1559 1559 1560 1560 1560 1559 1559 1560 1560 1560 1560 1560 1560 1560 1561 1560 1561 1561 1561 1560 1559 1558 1557 1556 1555 1554 1553 1552 1550 1549 1547 1545 1544 1542 1541 1539 1536 1533 1530 1528 1527 1527 1527
1559 1559 1559 1559 1560 1560 1560 1559 1559 1560 1560 1560 1560 1560 1560 1560 1560 1561 1561 1561 1560 1559 1558 1557 1556 1555 1553 1552 1551 1550 1548 1546 1545 1543 1541 1539 1537 1534 1531 1529 1528 1528 1528
1559 1559 1559 1559 1560 1560 1559 1559 1559 1559 1559 1559 1559 1560 1560 1560 1560 1560 1561 1561 1561 1560 1558 1557 1557 1555 1554 1553 1552 1550 1549 1547 1545 1544 1542 1540 1538 1535 1533 1531 1530 1529 1529
1559 1559 1559 1559 1559 1559 1559 1559 1559 1559 1559 1559 1559 1559 1559 1560 1560 1560 1560 1560 1560 1560 1559 1558 1557 1556 1555 1554 1552 1551 1549 1548 1546 1544 1543 1541 1539 1537 1535 1533 1532 1531 1530
1559 1559 1559 1559 1559 1558 1558 1558 1558 1558 1558 1558 1558 1558 1558 1559 1559 1559 1560 1560 1560 1560 1560 1559 1558 1556 1555 1554 1553 1551 1550 1548 1547 1545 1543 1541 1540 1538 1537 1535 1534 1532 1531
1558 1558 1558 1558 1558 1558 1558 1558 1558 1558 1558 1558 1558 1558 1558 1558 1558 1558 1559 1559 1561 1560 1560 1559 1558 1557 1556 1554 1553 1552 1550 1549 1547 1546 1544 1542 1541 1539 1538 1536 1535 1534 1533
1557 1557 1558 1558 1558 1558 1557 1557 1557 1557 1557 1557 1556 1557 1557 1558 1558 1557 1558 1558 1559 1560 1559 1559 1558 1557 1555 1555 1553 1552 1551 1549 1548 1546 1545 1543 1542 1540 1539 1537 1536 1535 1534
1557 1557 1557 1558 1558 1558 1557 1557 1557 1557 1557 1557 1557 1557 1557 1557 1557 1557 1557 1557 1558 1558 1558 1558 1558 1556 1555 1555 1553 1552 1551 1550 1548 1547 1545 1544 1542 1541 1540 1538 1537 1536 1535
1556 1556 1556 1557 1557 1557 1557 1557 1557 1556 1557 1556 1556 1556 1556 1556 1556 1556 1557 1557 1557 1557 1558 1558 1557 1556 1556 1555 1553 1552 1552 1550 1549 1547 1546 1545 1543 1541 1540 1539 1538 1536 1535
1555 1555 1555 1556 1556 1556 1556 1556 1556 1556 1556 1556 1556 1556 1556 1556 1556 1556 1556 1556 1556 1557 1557 1557 1557 1556 1555 1554 1553 1553 1552 1551 1550 1548 1546 1545 1543 1542 1540 1539 1538 1537 1535
1553 1554 1554 1554 1555 1555 1555 1555 1555 1555 1555 1555 1555 1555 1555 1556 1555 1555 1555 1556 1556 1556 1556 1556 1556 1555 1555 1554 1553 1553 1552 1551 1550 1548 1547 1545 1543 1542 1540 1539 1538 1536 1535
1552 1552 1553 1553 1553 1553 1553 1554 1554 1554 1554 1554 1554 1554 1554 1554 1554 1555 1555 1555 1555 1555 1555 1555 1555 1555 1554 1553 1553 1552 1552 1551 1549 1548 1547 1545 1544 1542 1541 1539 1537 1536 1534
1549 1550 1550 1551 1551 1551 1551 1552 1552 1553 1553 1553 1553 1553 1553 1553 1553 1553 1553 1553 1554 1554 1554 1554 1554 1554 1554 1553 1552 1551 1551 1551 1550 1548 1546 1545 1544 1542 1540 1538 1537 1535 1534
1547 1547 1548 1548 1549 1549 1550 1550 1550 1551 1551 1552 1552 1552 1552 1551 1551 1552 1552 1552 1552 1552 1553 1553 1553 1553 1553 1552 1551 1550 1550 1549 1549 1547 1546 1545 1543 1542 1540 1537 1536 1534 1533
1543 1544 1545 1546 1546 1547 1547 1548 1548 1549 1549 1549 1550 1550 1550 1550 1550 1551 1551 1551 1551 1551 1551 1551 1551 1551 1551 1550 1549 1549 1549 1548 1547 1545 1544 1544 1542 1541 1539 1537 1534 1533 1531
1540 1541 1542 1543 1543 1544 1544 1545 1546 1547 1547 1547 1548 1548 1548 1549 1548 1549 1549 1550 1549 1549 1549 1549 1549 1549 1548 1548 1547 1547 1547 1546 1546 1545 1543 1542 1541 1539 1537 1536 1533 1531 1529
1536 1537 1538 1539 1540 1541 1542 1542 1543 1544 1544 1545 1545 1545 1545 1546 1546 1547 1547 1548 1548 1548 1548 1547 1547 1547 1546 1546 1545 1545 1544 1544 1544 1543 1541 1540 1539 1537 1536 1534 1532 1530 1528